Location: Avully
(45.9633°N, 6.0228°E)
Time: 14:39:50
(UTC+00:00)

NOAA 16 DEB - Visible Passes

Search period start: 04 October 2024 00:00
Search period end: 14 October 2024 00:00
Orbit: 825 x 850 km, 98.6° (Epoch: 03 October)

Date Brightness Start Highest point End Pass type
(mag) Time Alt. Az. Time Alt. Az. Time Alt. Az.
04 Oct ? 17:40:03 10° ESE 17:44:26 26° ENE 17:48:50 10° N visible
04 Oct ? 19:19:23 10° S 19:24:37 50° W 19:29:52 10° NNW visible
05 Oct ? 19:03:36 10° S 19:08:57 67° WSW 19:14:20 10° NNW visible
06 Oct ? 18:47:54 10° SSE 18:53:19 89° WSW 18:58:44 10° NNW visible
06 Oct ? 20:32:11 10° WSW 20:34:31 13° W 20:36:53 10° WNW visible
07 Oct ? 18:32:20 10° SSE 18:37:41 69° ENE 18:43:03 10° N visible
07 Oct ? 20:15:06 10° SW 20:18:39 18° W 20:22:14 10° NW visible
08 Oct ? 18:16:52 10° SE 18:22:04 51° ENE 18:27:17 10° N visible
08 Oct ? 19:58:30 10° SW 20:02:47 24° W 20:07:06 10° NW visible
09 Oct ? 18:01:31 10° SE 18:06:28 39° ENE 18:11:25 10° N visible
09 Oct ? 19:42:10 10° SSW 19:46:57 32° W 19:51:46 10° NNW visible
10 Oct ? 17:46:17 10° ESE 17:50:52 29° ENE 17:55:28 10° N visible
10 Oct ? 19:26:02 10° S 19:31:08 43° W 19:36:16 10° NNW visible
11 Oct ? 17:31:11 10° ESE 17:35:17 23° ENE 17:39:24 10° N visible
11 Oct ? 19:10:01 10° S 19:15:19 59° W 19:20:40 10° NNW visible
12 Oct ? 17:16:17 10° E 17:19:43 18° ENE 17:23:10 10° NNE visible
12 Oct ? 18:54:08 10° S 18:59:31 79° WSW 19:04:57 10° NNW visible
12 Oct ? 20:39:27 10° W 20:40:50 11° W 20:42:13 10° WNW visible
13 Oct ? 18:38:23 10° SSE 18:43:44 78° ENE 18:49:09 10° NNW visible
13 Oct ? 20:21:41 10° SW 20:24:49 15° W 20:27:56 10° NW visible
